Regional Weather Roundup
Issued by NWS

Home | Current Version | Previous Version | Text Only | Print | Product List | Glossary On
Versions: 1 2 3 4 5 6 7 8 9 10 11 12 13 14 15 16 17 18 19 20 21 22 23 24 25 26 27 28 29 30 31 32 33 34 35 36 37 38 39 40 41 42 43 44 45 46 47 48 49 50
000
ASUS43 KBIS 280910
RWRND

NORTH DAKOTA REGIONAL WEATHER ROUNDUP
NATIONAL WEATHER SERVICE BISMARCK ND
400 AM CDT FRI APR 28 2017

NOTE: "FAIR" INDICATES FEW OR NO CLOUDS BELOW 12,000 FEET WITH NO
SIGNIFICANT WEATHER AND/OR OBSTRUCTIONS TO VISIBILITY.


NDZ001>003-009>011-017-281000-
NORTHWEST NORTH DAKOTA

CITY           SKY/WX    TMP DP  RH WIND       PRES   REMARKS
WILLISTON      FAIR      30  22  72 VRB3      29.92R
MINOT          FAIR      28  24  85 SW7       29.93R
MINOT AFB      CLEAR     23  21  92 NW3       29.93R
$$

NDZ018>021-031>035-040>046-281000-
SOUTHWEST NORTH DAKOTA

CITY           SKY/WX    TMP DP  RH WIND       PRES   REMARKS
BISMARCK       FAIR      30  26  85 CALM      29.92R
DICKINSON      FAIR      25  17  72 E9        29.86R WCI  15
GARRISON         N/A     25  22  88 CALM      29.92R
HETTINGER ARPT CLOUDY    30  22  72 NE9       29.86R
$$

NDZ004>008-012>016-024-026-027-054-281000-
NORTHEAST NORTH DAKOTA

CITY           SKY/WX    TMP DP  RH WIND       PRES   REMARKS
GRAND FORKS    PTCLDY    33  29  85 W6        29.86S
GRND FRKS AFB  PTCLDY    29  27  93 NW5       29.87R
DEVILS LAKE    FAIR      29  24  82 N7        29.90R
$$

NDZ022-023-025-028>030-036>039-047>053-281000-
SOUTHEAST NORTH DAKOTA

CITY           SKY/WX    TMP DP  RH WIND       PRES   REMARKS
FARGO          CLEAR     29  25  85 W5        29.87R
JAMESTOWN      FAIR      29  26  89 W6        29.88R
$$





USA.gov is the U.S. government's official web portal to all federal, state and local government web resources and services.